Wind_Speed
21 22 24 25 27 28 29 30 29 29 30 29 28 28 31 32 32 32 31 31 30 28 26 25 23 22 21 21 21 21 21 21 22 23 23 24 25 26 27 28 27 27 27 26
20 21 22 25 27 28 27 28 28 28 29 30 29 29 31 32 32 31 31 30 30 29 28 26 25 24 24 22 21 22 23 24 26 27 28 28 28 28 29 31 32 30 29 29
18 19 21 23 25 27 27 27 27 28 30 30 29 29 31 32 32 31 31 30 30 31 30 28 27 26 26 25 25 26 26 26 27 29 30 31 32 31 32 33 34 33 32 32
17 18 20 22 24 25 26 27 27 28 30 30 30 30 31 31 31 31 30 30 30 31 31 31 29 29 28 28 28 30 30 29 29 30 31 33 34 34 33 32 32 32 32 33
15 18 20 21 22 24 25 27 28 29 31 30 30 31 31 31 30 30 29 29 29 31 32 31 31 30 30 31 31 32 31 31 32 32 34 37 36 34 33 34 33 34 34 34
15 17 19 20 21 23 25 27 29 30 31 31 30 31 31 31 30 29 29 29 30 31 32 32 31 31 32 32 33 33 33 33 34 34 35 37 37 37 35 34 34 34 34 35
15 16 18 20 21 23 25 27 29 30 32 31 30 31 31 31 30 29 30 31 31 32 33 33 33 33 33 34 35 36 36 35 35 36 37 38 38 37 37 37 37 38 37 37
13 14 16 18 20 22 25 27 28 30 30 31 31 32 31 31 31 30 30 31 32 33 34 34 35 35 36 36 37 38 38 37 37 37 38 38 38 38 38 38 38 37 37 36
10 13 15 17 18 20 23 25 27 28 29 30 32 33 33 32 32 32 32 32 33 34 35 35 36 37 38 38 39 38 38 38 38 38 39 40 41 40 39 39 40 40 38 38
9 12 15 17 18 20 22 23 25 28 29 30 33 33 34 33 32 33 33 33 34 35 36 37 37 38 39 40 41 41 41 41 42 42 42 42 41 39 39 40 40 40 39 38
8 11 13 15 17 18 21 23 25 26 28 29 32 34 34 34 35 35 36 36 35 35 36 38 38 39 39 40 41 42 43 44 43 42 41 42 42 40 41 40 40 40 40 41
7 9 11 14 15 17 19 21 23 25 26 28 30 32 32 33 33 34 35 36 37 37 37 36 37 38 38 39 39 40 41 41 41 41 41 41 40 40 41 41 41 41 42 43
5 7 10 12 13 14 15 17 20 23 24 26 28 30 29 30 30 31 33 34 35 36 36 36 36 37 37 37 38 37 38 38 39 40 40 40 40 41 42 42 41 42 43 45
3 5 7 9 11 12 14 16 18 20 22 24 26 29 29 29 29 29 29 30 32 32 32 33 34 34 34 35 35 35 36 37 37 39 39 38 39 41 41 42 42 43 45 47
3 4 5 7 9 11 14 15 17 19 22 24 25 27 28 28 29 29 29 29 30 30 30 30 32 32 33 34 34 34 35 35 36 37 37 38 39 40 41 42 43 45 46 49
4 4 4 6 8 10 12 14 16 18 20 22 24 27 28 29 30 29 28 28 29 29 28 28 29 30 31 31 31 31 32 32 33 33 35 36 38 39 40 42 44 45 47 49
5 4 4 5 6 8 10 12 13 14 16 18 21 23 24 26 26 27 27 27 28 28 27 26 26 26 26 27 29 29 30 30 30 32 34 35 37 39 41 42 43 44 45 47
6 6 5 6 7 8 9 11 13 14 16 17 18 20 22 22 23 24 25 25 25 26 26 26 25 25 25 25 26 27 28 29 30 32 33 35 36 37 38 39 41 42 44 45
8 8 7 7 8 8 9 10 12 13 14 16 17 18 19 21 21 21 21 21 20 21 22 23 24 24 25 26 26 26 27 28 29 30 32 33 34 35 36 37 38 39 41 42
9 9 9 9 9 9 10 10 11 12 13 14 15 15 15 16 17 18 19 19 20 21 22 23 23 23 24 24 24 25 26 27 28 29 30 31 32 33 33 35 36 37 39 40
10 11 11 10 10 10 11 11 11 10 11 12 12 13 14 15 16 17 17 18 19 20 20 21 21 21 21 21 22 23 25 26 26 27 27 28 29 30 30 32 33 34 35 36
11 12 12 11 11 11 11 10 10 10 11 11 12 12 12 13 15 15 15 16 17 18 18 18 19 20 20 21 21 22 23 23 23 24 25 26 27 27 28 29 31 32 32 33
12 13 13 12 12 12 12 11 11 11 11 11 11 11 12 12 12 13 13 14 15 16 17 18 19 19 20 20 20 21 21 21 22 23 23 24 25 26 26 28 29 29 29 30
13 14 14 13 13 13 12 12 12 12 12 11 11 11 11 11 12 12 12 13 14 14 15 16 17 17 18 19 19 19 19 20 20 22 22 23 23 23 25 26 26 26 26 26
13 14 14 14 14 13 13 12 12 12 12 11 10 10 11 11 12 12 12 12 12 13 14 15 15 16 16 17 17 17 18 19 20 21 21 21 21 22 23 23 22 22 22 22
13 14 14 14 14 14 13 13 13 13 12 12 11 11 11 11 11 11 11 11 12 13 13 13 14 14 15 15 16 16 17 18 19 19 19 20 20 20 20 20 19 19 19 18
Wind_Direction
239 233 229 226 225 226 224 223 224 224 226 227 227 223 225 231 234 236 238 239 239 235 232 232 233 234 237 242 243 245 247 252 255 255 257 260 260 260 260 264 263 265 263 264
236 232 227 225 224 224 224 224 224 225 226 227 227 225 226 231 234 237 239 239 238 235 233 231 231 235 239 244 248 250 251 254 256 258 257 258 261 262 265 268 266 267 266 267
234 231 227 226 224 223 223 223 222 222 224 227 227 226 228 231 234 236 238 238 236 234 232 231 233 236 239 243 246 249 253 256 259 261 261 263 263 267 266 269 267 269 270 270
235 230 227 225 222 220 219 217 217 218 220 223 224 224 227 230 232 235 236 236 235 234 233 234 236 238 241 245 248 251 254 258 262 264 264 264 266 269 273 276 277 279 280 278
235 229 226 223 221 219 216 215 214 216 219 222 224 223 224 226 228 231 232 233 234 234 235 237 239 241 244 247 249 253 255 259 263 265 268 268 269 273 276 280 281 282 283 284
234 230 225 221 219 218 216 216 216 217 220 221 222 224 223 224 226 229 230 232 234 235 237 240 242 244 247 250 253 257 261 262 265 270 274 273 275 276 280 286 288 288 288 288
233 230 225 220 219 219 217 216 216 219 220 222 222 226 226 225 226 229 231 234 236 237 239 243 246 248 251 253 258 262 264 266 270 273 275 275 276 281 285 288 290 289 289 290
230 223 222 221 221 221 219 218 220 222 224 224 225 229 229 229 230 232 235 238 240 242 244 246 248 250 252 256 260 264 266 269 271 272 275 278 280 285 288 291 292 293 292 290
221 215 218 219 219 220 220 221 223 226 226 228 229 232 235 235 236 237 240 242 244 246 248 250 252 254 256 258 261 264 267 270 271 274 276 280 283 285 288 290 292 292 292 292
219 215 218 220 221 223 224 224 224 227 229 230 232 235 237 238 241 243 245 247 249 250 252 254 257 258 259 260 262 265 266 268 270 273 276 280 282 285 288 290 292 293 293 291
221 216 216 219 222 226 227 228 229 231 233 235 237 239 241 244 244 247 250 252 254 255 255 256 258 259 260 262 264 266 268 269 271 274 276 279 282 284 287 289 290 289 290 290
222 221 223 224 228 233 234 233 233 235 236 238 241 243 244 248 250 251 254 255 257 259 261 263 263 262 263 265 266 268 269 271 274 276 279 280 281 284 286 287 289 289 290 290
230 231 233 235 234 234 234 234 235 237 240 241 243 246 247 252 255 255 257 258 260 262 264 266 267 267 268 267 268 269 271 273 276 278 279 279 280 282 285 287 288 288 289 290
261 254 249 246 242 238 239 241 241 243 245 247 249 251 251 253 257 260 261 263 265 267 270 269 267 268 269 268 270 271 272 274 277 278 278 278 280 281 282 283 285 287 289 290
296 274 264 258 250 248 249 250 252 250 252 253 255 256 256 257 260 263 266 268 269 270 274 273 271 270 268 268 269 271 273 274 274 275 276 279 280 282 283 285 287 288 289 290
334 314 293 273 266 258 259 261 263 261 258 257 260 261 261 262 264 266 268 271 271 273 277 278 276 273 270 271 272 274 275 276 277 276 278 280 281 283 285 286 288 289 290 291
352 338 324 302 289 276 270 271 270 267 263 263 263 265 262 263 264 268 269 270 271 271 274 274 273 275 275 276 276 276 278 279 279 279 280 281 282 283 285 287 289 291 292 293
353 348 334 321 307 291 286 278 275 271 269 268 268 269 267 264 264 267 269 268 268 270 269 271 274 275 276 279 280 279 278 278 279 281 282 283 285 287 289 291 292 293 294 296
358 351 342 331 318 308 296 289 284 278 274 272 272 271 269 267 267 267 268 269 268 271 271 270 273 276 278 280 280 280 279 280 281 283 285 287 288 290 292 293 296 298 300 301
360 356 351 346 338 329 320 307 300 292 281 279 277 273 270 269 269 267 266 265 266 269 271 271 271 274 277 278 279 279 280 282 284 286 288 290 292 294 296 298 300 302 303 304
0 357 355 351 344 339 335 327 317 308 300 292 284 279 277 274 272 273 270 267 267 268 270 271 271 273 276 278 280 281 283 284 287 289 292 294 296 298 300 302 304 306 307 308
359 357 356 354 352 347 341 338 331 322 313 305 298 290 285 282 278 274 269 267 266 267 270 273 275 277 279 282 284 285 286 288 290 292 294 297 299 301 304 306 308 310 312 313
358 356 354 353 351 347 346 343 337 329 321 314 307 298 293 287 283 282 283 277 273 273 276 279 281 282 283 285 287 289 290 291 292 294 297 299 302 305 307 309 312 314 315 317
357 355 353 352 349 346 343 342 338 331 324 317 312 305 298 293 291 291 288 284 279 279 280 283 285 285 287 289 291 294 294 295 297 298 300 301 304 307 310 313 315 317 320 323
358 356 354 353 351 348 345 341 338 333 329 324 317 311 306 302 299 297 295 290 288 287 287 288 291 293 294 295 296 297 297 298 300 301 302 304 306 310 314 317 319 323 327 329
0 358 356 353 352 350 346 342 339 336 334 330 325 319 315 311 307 302 297 296 295 294 294 295 296 298 300 300 299 299 300 301 302 303 304 306 308 312 316 319 324 328 331 334
Height
5767 5771 5774 5777 5781 5785 5790 5795 5799 5803 5806 5810 5814 5818 5820 5822 5825 5829 5832 5835 5839 5842 5846 5849 5851 5854 5856 5857 5858 5859 5860 5861 5861 5861 5862 5862 5861 5861 5860 5859 5857 5856 5855 5855
5764 5767 5769 5772 5776 5780 5785 5790 5795 5798 5801 5806 5809 5813 5816 5818 5821 5824 5827 5830 5834 5837 5840 5844 5847 5849 5851 5852 5853 5854 5855 5856 5857 5856 5856 5856 5854 5853 5854 5853 5851 5850 5848 5848
5759 5763 5765 5768 5772 5776 5781 5786 5790 5793 5796 5801 5805 5809 5812 5814 5817 5820 5823 5826 5829 5832 5835 5839 5841 5843 5845 5847 5848 5849 5849 5850 5850 5849 5849 5848 5847 5846 5846 5845 5844 5842 5841 5840
5756 5759 5761 5764 5768 5772 5777 5781 5785 5788 5792 5796 5801 5804 5807 5810 5813 5816 5818 5821 5824 5827 5830 5833 5836 5838 5840 5841 5842 5843 5843 5843 5843 5842 5841 5841 5839 5838 5838 5838 5837 5836 5834 5833
5752 5755 5757 5761 5765 5768 5773 5776 5781 5784 5788 5792 5796 5800 5803 5806 5809 5812 5814 5817 5819 5822 5825 5828 5830 5833 5834 5835 5836 5837 5837 5836 5836 5835 5834 5833 5832 5831 5831 5830 5829 5828 5827 5826
5749 5751 5754 5758 5761 5765 5769 5773 5777 5780 5784 5789 5792 5796 5799 5802 5805 5808 5810 5812 5815 5817 5820 5822 5824 5826 5828 5829 5829 5830 5830 5829 5828 5828 5827 5825 5825 5823 5823 5822 5821 5820 5819 5818
5747 5749 5751 5755 5758 5762 5766 5770 5774 5777 5781 5785 5788 5791 5795 5798 5801 5803 5805 5807 5809 5811 5814 5816 5818 5820 5821 5822 5822 5822 5822 5821 5821 5821 5820 5819 5817 5816 5815 5815 5813 5813 5811 5809
5744 5747 5749 5752 5755 5759 5762 5767 5771 5775 5777 5781 5784 5786 5790 5793 5796 5798 5800 5802 5804 5805 5807 5809 5811 5812 5813 5814 5815 5815 5814 5814 5813 5813 5812 5811 5810 5808 5807 5806 5805 5803 5802 5801
5743 5745 5747 5749 5753 5756 5759 5763 5767 5770 5773 5776 5779 5782 5785 5788 5790 5792 5794 5796 5798 5799 5801 5802 5803 5805 5806 5806 5806 5807 5806 5806 5805 5804 5803 5803 5802 5801 5799 5798 5797 5795 5794 5793
5742 5744 5745 5747 5750 5753 5757 5759 5763 5766 5769 5771 5774 5777 5780 5782 5784 5786 5788 5789 5791 5792 5794 5795 5796 5797 5798 5798 5798 5798 5798 5797 5796 5795 5794 5793 5793 5792 5791 5789 5788 5787 5785 5784
5741 5743 5744 5746 5748 5750 5754 5756 5759 5762 5764 5767 5769 5773 5774 5776 5778 5780 5781 5783 5784 5785 5786 5787 5788 5789 5789 5790 5790 5790 5789 5788 5787 5787 5785 5784 5784 5784 5782 5781 5779 5778 5776 5775
5740 5742 5743 5744 5746 5748 5750 5753 5755 5758 5760 5762 5764 5769 5768 5770 5771 5773 5774 5775 5776 5777 5778 5779 5780 5781 5781 5781 5781 5781 5780 5779 5779 5778 5777 5776 5775 5774 5772 5771 5770 5768 5766 5764
5740 5741 5742 5743 5746 5746 5747 5749 5751 5754 5756 5757 5759 5763 5763 5764 5765 5766 5767 5768 5769 5769 5770 5771 5771 5772 5772 5772 5772 5772 5772 5771 5770 5769 5768 5768 5766 5764 5763 5761 5759 5757 5755 5753
5740 5740 5742 5743 5742 5743 5744 5746 5747 5750 5751 5752 5754 5755 5757 5758 5759 5760 5760 5761 5762 5762 5762 5763 5763 5763 5764 5764 5764 5763 5763 5763 5762 5761 5760 5759 5757 5756 5754 5751 5749 5747 5744 5741
5739 5739 5739 5740 5740 5741 5742 5743 5744 5746 5746 5748 5749 5749 5751 5752 5753 5754 5754 5755 5755 5755 5755 5755 5755 5755 5756 5755 5755 5755 5755 5754 5753 5752 5751 5750 5748 5746 5744 5741 5738 5735 5732 5729
5739 5738 5738 5738 5739 5739 5740 5740 5741 5741 5741 5742 5743 5743 5744 5745 5746 5747 5748 5748 5748 5748 5748 5748 5748 5748 5747 5747 5747 5747 5746 5745 5744 5743 5741 5740 5738 5736 5734 5731 5728 5725 5721 5718
5738 5738 5737 5737 5737 5737 5737 5737 5737 5736 5736 5737 5737 5738 5738 5739 5739 5740 5741 5741 5741 5741 5741 5741 5740 5740 5740 5739 5739 5738 5737 5736 5735 5733 5732 5731 5729 5726 5724 5721 5718 5714 5711 5707
5738 5737 5736 5736 5736 5735 5737 5734 5733 5733 5732 5732 5732 5732 5732 5733 5733 5733 5734 5734 5734 5733 5734 5734 5733 5733 5732 5731 5730 5730 5729 5728 5726 5725 5723 5721 5719 5717 5714 5711 5708 5704 5700 5696
5738 5737 5736 5735 5733 5733 5732 5731 5729 5729 5728 5728 5728 5727 5727 5727 5726 5726 5727 5727 5727 5727 5726 5726 5726 5725 5725 5724 5723 5722 5721 5720 5718 5717 5715 5713 5711 5708 5705 5702 5698 5694 5690 5685
5738 5737 5735 5733 5732 5731 5730 5728 5726 5726 5725 5724 5723 5722 5721 5722 5722 5722 5721 5721 5720 5720 5720 5720 5719 5719 5718 5717 5716 5715 5714 5712 5711 5709 5707 5705 5703 5700 5697 5693 5689 5685 5681 5676
5738 5736 5734 5732 5731 5729 5728 5725 5724 5724 5723 5720 5719 5718 5717 5717 5717 5717 5716 5715 5715 5715 5714 5714 5713 5712 5712 5711 5710 5708 5707 5705 5704 5702 5700 5698 5695 5692 5689 5685 5682 5677 5673 5668
5738 5735 5733 5731 5729 5730 5725 5723 5722 5721 5718 5717 5715 5714 5713 5713 5712 5711 5710 5710 5709 5709 5709 5708 5707 5707 5706 5704 5703 5702 5700 5699 5697 5695 5693 5691 5688 5685 5682 5679 5675 5670 5665 5660
5737 5736 5733 5731 5730 5727 5724 5722 5720 5718 5716 5714 5712 5711 5710 5709 5708 5707 5706 5705 5705 5704 5703 5703 5702 5701 5699 5698 5697 5696 5694 5692 5691 5689 5687 5684 5682 5679 5676 5672 5668 5663 5659 5654
5737 5735 5732 5730 5727 5725 5723 5720 5718 5716 5714 5712 5710 5708 5707 5706 5704 5703 5702 5701 5700 5699 5699 5698 5696 5695 5694 5693 5691 5690 5688 5687 5685 5683 5681 5678 5676 5673 5670 5666 5662 5658 5653 5649
5737 5734 5732 5729 5727 5724 5721 5719 5717 5714 5712 5710 5708 5706 5704 5703 5702 5700 5699 5698 5697 5696 5694 5693 5692 5691 5689 5688 5686 5685 5683 5681 5679 5677 5675 5672 5670 5667 5664 5661 5657 5653 5649 5645
5737 5735 5732 5729 5726 5724 5721 5718 5715 5713 5710 5708 5706 5704 5702 5701 5699 5697 5696 5695 5693 5692 5691 5690 5688 5687 5685 5684 5682 5680 5678 5676 5674 5672 5670 5667 5665 5662 5659 5656 5653 5650 5646 5642